Theta_e
338 338 337 336 337 337 336 336 336 336 337 338 337 338 337 337 336 337 337 337 337 336 336 336 335 334 334 334 333 333 332 332 333 333 334 334 332 331 333 333 333 334 334 334 335 334 335 335 335 335 335 334 334 334 334 334 333 333 333 333 333 333 333 332 332 332 332 331 330 329 329 327 326 327 327 326 324 324 325 327 329 330 330 330 331
339 339 338 337 336 337 336 336 337 336 337 338 337 337 337 336 336 336 336 336 335 335 335 334 333 333 332 332 331 331 331 331 332 331 332 332 329 328 330 331 331 331 331 332 333 334 334 334 334 334 334 333 333 333 332 332 332 331 331 331 332 332 332 332 332 331 331 331 332 330 330 329 327 327 327 327 325 323 323 326 328 329 330 330 330
339 339 338 337 336 337 337 336 336 336 336 336 337 336 336 336 336 335 334 334 333 333 333 332 332 331 330 330 330 330 329 329 329 329 328 328 327 326 326 327 327 327 328 329 330 331 331 331 331 332 332 332 332 332 331 331 330 330 330 330 330 331 331 331 331 331 331 331 331 331 330 330 329 328 328 327 327 325 323 324 326 328 329 330 330
339 338 337 337 337 337 337 336 336 336 336 336 336 336 336 335 334 334 333 332 332 331 331 330 330 329 329 328 328 327 326 326 326 325 325 324 324 323 323 324 323 321 322 324 325 326 327 327 327 328 329 330 330 330 329 329 329 330 330 329 329 330 330 330 330 330 330 331 331 332 331 330 330 329 328 328 327 326 324 322 325 327 329 329 330
338 337 336 336 337 337 337 336 336 335 335 335 335 335 334 334 333 332 332 331 331 330 329 329 328 327 327 326 325 324 322 321 321 321 321 320 321 321 321 321 320 319 318 318 318 319 319 321 322 324 325 326 326 326 326 326 328 329 328 328 328 329 329 329 329 329 329 330 331 331 331 331 330 329 329 328 327 327 326 323 323 326 328 329 330
338 337 336 336 336 337 336 335 335 335 335 334 334 333 332 332 331 331 330 330 329 329 328 327 327 326 324 322 321 319 318 317 316 316 317 317 318 319 319 320 320 319 317 316 316 315 314 314 315 317 318 319 320 321 322 323 324 326 326 326 326 326 328 328 328 328 327 328 329 329 329 330 330 330 329 329 327 327 327 324 323 324 327 328 329
338 337 336 336 336 336 335 335 334 334 334 333 333 332 331 331 330 329 329 329 328 327 326 326 325 323 320 318 316 315 314 313 313 313 313 314 315 316 316 317 317 317 317 316 315 313 313 312 312 311 311 312 313 315 318 320 321 322 323 324 323 323 324 326 326 326 326 326 327 327 327 328 329 330 330 330 328 327 327 326 323 323 325 327 328
337 336 336 336 336 335 335 334 334 333 333 332 332 331 330 329 329 328 327 327 326 325 325 325 323 320 317 315 313 312 310 309 309 309 310 311 311 311 311 311 312 313 313 312 311 310 310 310 310 310 309 308 308 309 312 316 318 319 319 320 321 320 320 322 323 324 323 324 326 325 325 326 328 329 331 331 329 328 327 327 325 323 323 324 326
337 336 336 335 335 335 334 334 333 332 332 331 330 329 328 327 327 326 325 325 323 322 323 323 321 317 314 311 309 308 306 305 304 305 306 307 308 308 308 307 307 307 308 307 306 304 305 306 306 306 306 306 306 305 306 310 313 316 316 316 317 318 317 318 320 321 319 320 324 324 322 324 326 328 330 331 330 329 328 327 326 324 322 323 324
336 336 335 334 334 333 333 332 332 331 330 330 329 328 327 325 324 323 323 322 318 319 322 322 319 315 311 307 306 304 302 301 301 302 304 305 306 306 305 305 304 304 303 303 302 300 300 301 301 301 301 301 302 302 303 305 308 311 313 312 314 315 315 315 317 319 317 317 321 321 320 321 324 325 327 329 329 328 328 328 327 325 323 323 324
336 335 335 333 333 332 332 331 330 329 329 328 327 326 324 323 322 320 318 315 313 316 321 321 318 313 309 304 302 300 299 298 298 299 301 303 304 304 304 304 303 301 300 300 299 298 297 297 298 298 298 298 298 299 300 301 303 306 309 309 311 313 313 314 315 316 316 314 316 319 317 318 321 322 323 324 325 325 326 328 328 328 326 323 323
335 335 334 333 333 332 331 330 329 328 328 327 325 323 321 320 319 316 312 310 312 318 322 321 318 314 311 308 304 299 297 296 297 298 299 301 303 304 304 304 302 300 299 298 298 298 297 297 297 297 297 297 297 297 298 298 299 302 306 306 307 310 310 312 312 313 314 312 313 315 315 316 318 319 320 321 321 322 323 325 327 329 328 326 324
334 334 333 333 332 332 331 330 329 328 326 325 323 320 319 318 316 312 309 308 311 318 321 321 320 318 316 314 311 307 301 297 296 296 298 299 301 303 303 302 302 301 300 300 299 298 298 297 297 297 297 297 297 297 297 297 297 298 303 303 303 307 308 309 309 310 312 311 311 313 312 313 315 316 318 318 318 320 321 323 325 328 329 328 326
334 333 332 332 331 330 329 327 326 324 323 321 318 315 316 316 312 309 308 306 307 313 319 322 322 322 321 320 318 315 309 302 299 297 297 299 300 301 301 300 300 301 301 301 300 299 298 297 297 297 297 297 297 297 297 298 297 297 302 302 302 304 306 306 307 309 311 310 311 311 309 310 312 314 316 316 315 316 318 321 323 326 328 329 327
332 331 330 329 329 328 326 324 323 321 319 316 312 311 313 314 311 307 307 307 305 306 312 318 321 323 323 322 321 321 316 309 305 302 299 299 299 300 301 300 300 301 301 301 300 300 299 298 297 297 297 297 297 297 298 298 298 298 302 302 301 302 304 304 305 307 309 309 309 310 308 310 311 311 312 313 314 313 314 317 320 323 325 328 328
329 328 327 326 325 324 323 322 320 317 313 310 307 307 310 312 309 306 307 309 308 304 304 310 315 319 321 320 318 317 313 311 310 307 303 301 299 300 301 301 301 301 301 300 300 301 300 299 298 298 297 298 298 298 298 299 299 300 302 301 300 301 302 302 303 304 306 307 308 308 308 309 310 310 310 311 312 312 312 313 317 320 322 325 328
326 325 324 323 323 321 320 319 316 311 308 306 305 305 308 309 308 306 306 308 308 306 302 302 305 310 314 316 316 311 307 308 309 308 304 301 300 300 300 301 301 301 300 299 299 300 300 299 298 297 297 297 298 298 298 299 299 301 303 301 299 300 300 301 301 302 304 306 306 307 308 308 308 309 309 309 310 311 311 310 312 316 318 321 325
322 322 321 321 320 319 317 314 310 307 305 304 304 305 307 308 307 305 304 305 308 308 304 300 298 298 301 304 307 307 307 309 309 307 304 302 301 299 299 300 300 300 299 299 298 298 299 299 298 297 297 297 298 298 298 298 298 300 302 301 299 298 298 299 300 299 300 303 305 306 306 307 307 308 308 309 308 309 310 309 309 312 315 317 320
320 320 319 318 317 315 313 309 306 305 304 304 305 306 307 307 306 305 304 303 307 309 307 304 300 298 297 296 297 299 303 307 308 307 305 304 301 300 299 299 299 299 299 299 298 298 298 299 298 298 298 298 298 298 298 298 298 299 301 300 298 298 297 298 298 297 297 299 303 304 305 306 306 307 307 307 307 308 308 308 308 309 311 313 317
318 318 317 316 314 312 309 306 305 304 304 304 305 306 306 305 304 303 302 301 302 304 305 305 303 301 299 298 297 297 298 301 304 304 304 304 303 301 300 298 298 299 299 299 299 298 298 298 298 298 298 298 298 297 298 298 298 299 299 298 298 298 297 297 296 296 296 297 300 302 303 304 305 306 306 306 306 306 307 307 307 308 309 309 312
316 316 315 313 311 309 307 305 304 304 305 305 305 305 304 303 301 300 298 297 297 297 298 300 301 301 301 301 301 301 300 301 302 303 303 303 302 302 302 301 301 300 298 299 299 298 298 298 298 298 298 298 298 297 297 297 298 298 298 297 297 298 297 296 296 296 296 296 298 300 301 303 304 305 305 304 305 305 306 306 306 308 308 306 307
315 314 313 311 309 307 306 305 305 305 305 305 304 303 302 301 299 298 296 296 295 295 295 296 297 298 300 302 303 303 303 302 302 303 303 303 302 302 302 302 302 301 299 299 299 298 298 298 298 298 298 298 297 297 297 297 298 297 296 296 297 298 296 296 296 296 296 296 296 298 300 302 303 303 303 303 304 304 304 305 306 306 306 304 303
313 312 311 309 308 307 305 305 305 305 305 304 303 301 301 300 298 297 296 295 295 295 295 295 295 295 297 300 301 301 302 302 302 302 302 302 303 302 301 300 301 300 299 298 298 298 298 297 297 297 297 297 297 297 297 297 298 297 296 296 296 297 296 296 296 296 296 296 296 297 299 301 301 302 302 302 302 302 303 304 304 304 302 302 302
312 311 309 308 307 306 305 305 305 304 303 302 301 300 300 299 297 296 295 295 295 295 295 295 295 296 296 298 299 299 300 300 301 301 301 302 302 302 301 300 301 300 299 298 298 298 298 297 297 297 297 297 297 296 296 297 297 296 296 296 296 296 296 296 296 296 296 296 295 296 298 299 300 300 301 301 301 301 301 302 302 300 300 301 300
311 309 308 307 306 306 305 305 304 303 302 301 301 300 299 298 296 295 295 295 294 294 294 294 294 295 296 297 297 298 298 299 299 300 300 301 301 302 301 300 301 300 299 298 298 298 298 297 297 297 297 297 297 297 297 297 297 296 295 296 297 296 296 296 296 296 295 296 295 295 296 297 298 299 299 299 299 299 300 300 300 299 300 300 299
310 309 307 307 306 305 305 304 304 303 302 301 300 299 298 296 296 295 295 294 294 294 294 293 293 294 295 296 297 298 298 298 298 299 299 300 300 301 301 301 301 302 300 299 299 298 297 297 297 297 297 297 297 297 297 297 297 296 295 297 298 297 296 296 296 295 295 295 295 295 295 295 296 296 297 297 298 298 299 299 299 299 300 300 299
309 308 307 306 305 305 305 304 303 302 302 301 299 297 296 296 295 295 294 294 294 293 293 293 293 293 293 295 296 297 297 297 298 298 298 299 299 299 300 300 301 301 301 301 300 299 297 297 297 297 296 296 296 296 296 296 297 296 296 297 298 297 297 296 295 295 295 295 295 294 295 295 295 295 295 296 298 298 298 298 299 299 299 299 299
308 307 306 306 305 305 305 304 303 302 302 301 298 296 295 295 295 294 294 294 293 293 293 293 293 292 293 294 295 296 296 297 298 298 298 298 298 298 298 299 299 299 300 300 301 300 298 297 297 296 296 296 296 296 295 296 297 296 296 297 298 297 297 296 295 295 295 295 294 294 295 295 295 295 296 297 297 298 298 298 298 299 299 299 299
308 307 306 306 305 305 304 304 303 302 301 300 298 296 295 295 295 295 294 294 293 293 293 293 293 292 292 294 295 296 296 297 297 297 297 297 297 297 297 297 298 298 298 298 299 300 298 297 296 296 295 295 295 295 296 296 296 295 296 297 297 297 297 295 295 295 295 295 295 294 294 294 295 296 296 297 297 297 297 298 298 298 298 298 299
307 307 306 306 305 305 304 304 303 302 301 299 297 296 295 295 295 295 294 294 294 294 294 293 293 293 293 294 295 296 296 296 296 296 296 296 296 296 296 297 297 297 297 297 298 299 298 297 296 296 295 295 296 296 296 296 296 295 296 297 297 297 296 296 296 296 295 295 295 295 295 295 295 295 295 296 296 297 297 297 297 297 298 298 298
307 306 306 306 305 304 304 303 303 302 300 299 298 296 295 295 296 295 295 295 296 295 294 293 293 294 294 295 296 296 296 296 296 296 296 295 296 296 296 296 296 296 296 296 297 297 297 297 296 296 295 295 296 296 296 296 296 296 296 296 296 296 296 296 296 296 295 295 295 295 295 295 295 294 295 295 296 296 297 297 297 297 297 297 297
306 306 306 306 305 304 304 303 302 301 300 299 297 296 295 296 297 296 296 296 296 295 294 293 294 295 295 296 296 296 296 296 296 296 296 295 295 296 295 295 296 296 296 296 296 297 297 296 297 296 296 296 296 296 296 296 296 296 296 296 296 296 296 297 296 296 296 295 295 295 295 294 294 294 295 295 296 296 296 296 295 295 295 295 295
306 306 306 305 305 304 303 303 302 301 300 299 297 296 296 296 296 296 297 297 296 295 295 294 295 296 296 296 296 295 296 296 296 296 295 295 295 295 295 295 295 295 295 295 296 296 296 296 296 296 296 296 296 296 296 296 296 296 296 296 296 296 296 297 297 296 296 295 295 295 294 294 294 295 295 295 295 295 295 295 295 295 295 294 294
305 305 305 305 304 304 303 302 302 301 301 299 297 295 296 296 296 297 297 297 297 296 296 295 295 296 296 296 296 295 295 296 296 295 295 295 295 295 295 295 294 295 295 295 295 296 296 296 296 296 296 296 296 296 296 296 296 296 296 296 296 296 296 296 297 296 296 295 295 295 294 295 295 295 295 295 295 295 295 295 295 295 294 294 294
305 305 305 305 304 304 303 302 302 301 301 299 296 295 297 297 297 297 298 298 298 297 296 296 296 296 296 296 296 296 296 296 296 296 295 295 295 295 295 295 295 294 294 295 295 296 296 296 296 296 296 296 296 296 295 295 296 296 296 296 296 296 296 296 296 296 296 295 295 295 295 295 295 295 295 295 295 295 295 295 295 294 294 294 294
305 305 304 304 304 304 303 302 302 301 301 298 295 296 297 298 298 298 298 298 298 298 296 296 296 296 296 296 296 296 297 297 297 296 295 295 295 295 295 294 294 294 294 295 295 295 296 296 296 296 296 296 296 296 296 296 296 295 296 296 296 297 297 296 296 296 296 295 295 295 295 295 295 295 295 295 295 295 295 295 294 294 294 294 294
305 304 304 304 304 303 303 302 302 302 301 298 296 297 297 298 299 298 298 298 298 298 297 296 296 296 296 296 296 297 297 297 297 296 295 295 295 295 294 294 294 294 295 295 295 295 296 296 296 296 296 296 296 296 296 295 295 296 296 296 296 297 297 297 296 296 296 296 296 296 295 295 295 295 295 295 295 295 295 295 294 294 294 294 294
304 304 304 304 304 303 303 302 302 302 301 299 298 297 298 298 299 299 298 298 298 298 297 296 296 296 296 296 297 297 297 297 297 296 296 295 295 295 294 294 294 294 295 295 295 296 296 296 296 296 296 296 296 296 296 295 295 296 296 296 296 296 296 296 296 296 296 296 296 296 296 296 296 295 295 295 295 295 295 295 295 294 294 294 294
304 304 304 304 303 303 303 302 302 302 301 300 299 298 298 299 299 299 299 299 298 298 297 297 296 296 296 296 297 297 297 297 296 295 295 295 295 295 294 294 294 295 295 295 295 295 296 296 296 296 296 296 296 296 296 295 295 296 296 296 296 296 296 296 296 296 296 296 296 296 296 295 296 295 295 295 295 295 295 295 295 295 295 295 295
304 304 304 303 303 303 303 302 302 302 301 300 299 298 299 299 300 299 299 299 299 298 298 297 296 296 296 296 297 297 296 295 294 293 293 293 293 294 293 293 294 295 295 295 295 296 295 296 296 296 296 296 296 296 296 295 296 295 295 295 296 296 296 296 296 296 296 296 296 296 295 295 295 295 295 296 296 296 296 295 295 295 295 295 295
303 303 303 303 303 303 303 303 302 302 301 300 299 299 299 299 300 300 300 299 299 298 298 297 297 297 296 296 296 295 294 293 292 292 292 291 290 291 291 291 292 294 295 295 295 295 295 296 296 296 296 296 296 296 296 295 295 295 295 295 296 296 296 296 296 297 296 296 296 295 295 295 295 295 295 296 296 296 296 296 296 296 296 295 294
303 303 303 303 303 303 303 302 302 302 301 301 300 300 299 299 300 300 300 300 299 299 298 298 298 297 296 296 295 294 294 293 292 292 291 290 289 289 289 289 290 292 294 294 295 295 295 296 296 296 296 296 296 296 296 295 295 295 295 295 296 296 296 296 296 297 296 296 295 295 295 294 294 295 295 295 296 296 296 296 296 296 295 295 294
301 302 303 303 303 303 303 302 302 302 301 301 301 300 299 299 299 299 300 299 299 299 299 298 298 298 297 296 295 294 294 293 292 291 290 289 289 289 289 289 290 291 292 293 293 294 295 295 296 296 296 296 296 295 295 295 294 295 295 295 295 295 295 296 296 296 296 295 295 295 295 294 294 294 295 295 295 295 296 296 295 295 295 294 294
300 300 302 303 303 303 303 303 303 302 301 301 300 300 299 299 299 299 300 299 299 299 299 298 298 298 297 297 296 295 294 293 292 291 289 288 289 289 289 289 289 290 291 291 292 293 294 295 295 296 295 295 295 295 295 294 294 294 295 295 295 295 295 295 296 296 295 295 295 295 294 294 294 294 294 294 295 295 295 295 295 295 295 295 294
298 298 300 302 303 303 303 303 303 302 302 301 300 300 300 299 299 299 299 299 299 299 299 298 298 298 297 297 296 295 294 293 292 291 289 289 289 289 289 289 289 290 290 291 291 292 292 294 295 295 295 295 295 295 294 294 294 294 295 295 295 295 295 295 295 295 295 295 295 294 294 294 294 293 294 294 294 295 295 295 295 295 295 295 295
295 296 299 302 302 303 303 302 302 302 301 301 300 300 300 300 299 298 298 299 298 298 298 298 298 298 296 295 296 296 294 293 292 290 289 289 289 289 289 289 289 289 289 290 291 292 292 293 294 294 294 294 294 293 293 293 293 294 294 294 295 295 295 295 295 295 295 295 294 294 294 294 293 293 294 294 294 294 294 295 295 294 295 295 295
294 295 298 301 302 302 302 302 302 302 301 301 300 300 300 299 299 299 299 299 298 298 298 297 297 297 295 294 295 295 294 293 292 290 289 289 290 290 291 290 289 289 289 289 290 291 292 292 293 293 293 293 293 292 292 292 292 293 293 294 295 295 295 295 295 295 295 295 294 293 293 293 293 293 293 293 293 293 294 294 294 294 295 295 295
294 295 297 300 301 302 302 302 302 301 301 301 300 300 300 299 299 299 299 299 298 298 297 297 297 296 294 294 295 294 294 293 292 290 289 289 291 293 293 292 292 291 290 289 289 290 291 292 292 292 293 293 293 293 292 292 292 292 293 294 295 295 295 295 295 295 295 295 294 293 293 293 293 293 293 293 293 293 293 294 294 294 294 294 294
294 295 297 300 301 301 301 301 301 301 300 300 300 299 299 299 299 299 299 299 299 298 297 297 297 295 294 294 295 294 294 293 291 290 289 290 292 294 294 293 294 294 293 290 289 289 289 290 291 292 292 293 293 293 293 292 292 292 293 295 294 294 295 295 295 295 295 295 294 293 292 292 292 292 292 292 292 292 293 293 294 294 294 294 294
294 295 297 299 300 300 301 300 300 300 300 299 299 299 299 299 298 298 299 299 299 298 297 297 296 295 294 294 295 294 294 293 292 291 290 290 292 294 294 294 295 295 294 292 291 290 289 289 290 290 291 292 292 293 293 293 292 292 293 294 294 294 295 295 295 295 295 295 294 292 292 292 292 292 292 292 292 292 292 292 293 293 294 294 295
294 295 296 298 299 300 300 300 300 300 299 299 298 298 297 295 295 296 298 299 299 298 298 297 296 295 294 294 294 293 294 293 292 291 291 291 292 293 294 294 295 295 294 293 292 291 290 289 289 289 290 291 292 293 293 293 293 293 293 293 294 294 294 295 295 295 294 294 294 292 292 292 292 292 292 292 292 292 292 292 292 292 293 294 296
Wind_Speed
4 3 4 4 3 4 3 4 3 3 3 3 4 4 4 4 4 4 4 4 4 4 4 4 3 4 5 5 5 5 5 5 5 6 6 6 9 9 7 7 7 8 9 10 11 11 11 11 11 12 11 11 11 11 10 10 10 12 12 12 12 12 13 15 15 15 15 18 19 18 17 16 16 15 14 13 13 15 17 17 15 13 12 12 11
3 2 2 3 3 3 3 3 3 3 3 2 3 4 4 4 4 4 4 4 4 4 4 4 5 5 6 6 6 6 6 6 7 9 9 9 11 12 10 9 9 8 9 8 9 9 8 8 9 11 12 13 12 11 12 11 11 13 14 14 12 11 13 14 15 15 15 15 17 18 18 17 16 15 15 14 13 14 16 18 17 15 14 13 13
2 2 2 2 3 3 3 3 3 3 3 2 3 3 3 4 4 4 4 4 4 4 4 5 6 7 7 7 8 8 9 9 10 11 12 12 13 13 12 12 12 11 10 9 9 8 7 7 8 9 10 13 13 11 11 11 13 14 15 16 15 13 12 13 14 15 15 14 15 17 18 18 17 15 15 15 15 14 15 18 19 18 15 14 14
2 2 2 2 3 3 3 4 3 3 3 3 3 3 3 3 3 4 4 4 4 4 5 6 8 9 9 10 10 11 12 12 13 14 15 15 15 15 15 14 14 15 14 12 11 10 9 9 9 9 9 11 12 11 10 11 12 13 14 15 15 15 15 14 15 16 14 13 13 15 18 19 18 17 16 16 16 16 16 17 20 20 17 16 15
2 3 3 3 3 3 3 4 4 3 3 3 3 3 3 3 3 3 3 4 5 6 7 8 10 10 11 12 13 14 15 15 16 16 17 17 17 17 17 15 15 15 15 14 13 13 11 10 10 10 9 10 11 11 11 12 11 12 15 14 11 13 16 15 15 17 16 14 12 13 16 19 20 20 19 18 18 18 18 17 19 22 19 17 16
3 4 4 4 4 4 4 4 4 3 3 3 3 3 3 3 4 4 4 4 6 6 8 9 10 12 14 15 16 17 17 17 18 18 18 18 17 17 17 16 15 15 15 14 14 14 13 12 11 10 10 10 11 11 12 14 12 12 15 16 12 10 14 17 15 16 17 15 13 13 14 16 18 21 21 21 19 18 19 18 19 22 21 19 18
4 5 5 5 5 5 5 4 4 3 2 3 3 3 4 4 4 4 4 5 6 6 7 10 11 14 16 17 18 18 17 18 18 18 18 17 17 16 16 15 15 14 14 13 14 14 13 13 12 11 10 11 12 13 14 14 13 11 13 16 15 11 12 16 17 16 15 15 15 16 17 17 17 19 23 23 21 19 20 20 19 21 23 21 20
5 5 5 5 5 5 4 4 3 2 2 3 3 4 5 5 5 5 5 6 6 5 7 10 13 16 17 18 18 18 18 18 18 18 17 17 16 16 16 15 15 13 13 14 14 15 14 13 13 12 12 12 12 13 13 15 16 15 14 16 17 14 12 15 18 17 14 14 17 19 17 17 18 18 21 24 22 20 20 20 20 20 23 24 23
5 5 5 5 5 4 4 3 2 2 3 3 4 5 6 6 6 6 6 6 5 5 8 12 16 18 19 19 20 19 19 19 18 18 17 17 16 16 16 16 15 14 14 15 15 16 15 14 14 13 13 13 13 13 13 14 17 18 18 17 17 17 15 15 19 20 16 14 17 20 17 16 18 17 15 20 23 22 20 21 20 19 21 24 24
4 4 4 4 4 4 4 3 2 2 3 4 6 6 6 6 6 7 7 6 4 6 10 14 17 19 21 21 21 21 21 20 19 18 17 17 17 17 16 16 16 16 16 16 17 18 18 16 15 15 15 14 13 13 12 13 15 18 20 20 20 19 18 17 18 21 19 15 17 20 17 16 18 16 13 12 17 21 21 23 23 20 20 22 24
4 4 3 3 3 3 2 2 2 3 4 5 6 6 6 6 5 6 7 6 5 8 13 16 18 21 23 24 24 24 23 21 21 20 18 18 17 16 16 16 17 17 18 18 18 20 21 20 18 17 16 15 14 13 13 14 15 18 21 22 22 22 20 20 20 21 22 18 18 21 18 16 18 17 15 14 14 16 18 20 24 24 21 21 22
6 4 2 1 2 1 2 3 4 5 5 4 5 5 5 4 5 6 7 7 7 11 15 16 18 20 21 22 24 25 26 24 23 21 20 18 17 15 15 15 16 18 19 19 20 22 23 22 22 20 19 17 16 15 15 15 16 17 21 22 23 23 22 22 22 22 24 21 18 21 19 16 18 18 17 17 17 18 19 19 22 26 25 22 21
6 3 1 1 1 2 4 5 5 5 4 4 4 4 3 4 5 6 7 9 10 11 15 15 14 14 14 14 16 19 23 25 25 24 21 19 17 16 16 16 16 16 17 18 20 22 23 23 23 22 22 20 19 18 17 17 18 18 21 23 23 24 23 23 23 23 24 22 20 22 20 17 19 18 18 20 20 20 20 20 21 24 28 26 23
6 4 3 2 3 4 4 4 4 3 4 4 4 3 3 4 6 8 9 12 13 9 14 12 7 8 9 8 8 9 14 20 24 24 22 19 18 17 17 17 17 16 15 16 18 21 23 24 24 24 24 23 22 21 20 19 19 19 21 24 24 24 24 24 24 24 24 24 23 23 21 20 21 18 16 20 22 21 20 20 21 20 25 29 26
6 4 3 3 2 2 2 2 2 3 4 3 3 3 4 4 5 8 11 13 16 12 9 9 4 5 7 5 4 4 6 10 15 18 19 19 19 18 16 16 17 16 15 15 16 18 20 23 24 24 24 24 24 23 22 21 19 19 21 24 25 25 25 24 24 24 24 24 23 23 22 22 23 20 18 21 22 21 21 21 21 19 19 26 28
5 4 3 2 1 1 0 1 2 3 4 4 5 5 5 5 5 7 9 11 14 17 13 8 5 4 3 2 2 2 2 5 7 10 13 16 17 17 15 14 15 15 15 15 16 15 16 20 21 22 23 22 22 22 21 21 20 19 20 23 25 25 25 25 25 25 25 24 24 23 23 23 23 23 21 22 21 21 22 21 20 20 18 19 24
4 3 3 2 2 1 1 2 3 4 5 7 8 7 7 6 6 8 10 11 12 15 19 18 13 7 4 3 1 1 2 3 5 6 8 12 14 14 14 14 13 14 15 16 16 15 15 18 20 21 23 22 21 21 20 21 21 19 18 22 25 26 25 25 25 25 24 24 24 23 23 23 22 22 23 23 21 21 22 22 21 21 20 17 17
4 4 4 3 3 3 3 4 6 7 8 9 9 9 9 9 9 10 11 13 13 12 17 21 22 21 17 13 8 5 3 1 2 3 5 8 11 12 14 14 13 13 15 16 17 17 16 15 17 19 20 20 20 19 19 19 20 18 17 21 25 25 26 25 25 25 25 24 24 24 23 23 23 23 23 23 22 21 22 22 21 21 21 19 16
6 6 5 5 5 5 6 7 8 10 10 11 12 12 11 11 11 11 12 14 13 11 11 14 18 22 24 23 20 15 9 4 2 1 3 4 8 11 11 13 13 12 12 13 14 15 14 13 14 15 16 17 18 17 17 17 20 18 16 20 23 25 26 25 26 26 26 25 24 24 24 23 23 23 23 23 23 22 22 21 21 22 22 21 18
8 8 7 7 6 7 8 9 10 12 12 13 14 14 14 14 14 15 15 17 17 15 13 12 12 15 18 21 22 20 18 13 8 4 1 2 4 7 8 10 12 12 10 9 11 13 14 13 13 14 15 16 17 18 18 18 19 18 17 21 22 23 25 25 26 27 27 26 25 24 25 24 23 23 23 24 23 23 22 21 21 22 22 21 20
9 9 8 8 8 9 9 10 12 13 14 14 15 15 16 16 17 18 20 21 22 23 22 19 15 13 12 12 13 14 14 13 10 7 5 3 3 5 6 6 6 9 9 7 8 11 13 14 13 14 15 16 17 19 20 19 19 18 20 23 22 23 25 25 26 27 27 27 26 25 25 25 24 24 24 24 25 24 23 22 21 21 22 22 20
11 10 9 9 9 10 10 11 13 14 15 15 16 17 17 18 19 19 21 23 24 25 26 25 22 20 16 12 10 9 8 9 9 8 7 6 5 5 8 7 4 6 8 7 6 6 10 13 12 14 15 16 17 18 20 21 19 20 23 25 23 23 25 25 26 26 27 27 27 27 26 26 25 25 24 25 25 25 24 23 22 21 21 22 20
12 11 11 10 11 11 11 13 14 15 15 16 17 18 18 19 20 20 22 24 25 25 26 26 25 25 22 18 14 12 10 9 9 9 9 7 6 5 8 8 4 5 8 9 7 5 8 12 13 14 15 17 18 19 22 22 20 23 27 26 25 25 26 27 26 27 27 28 28 27 27 27 27 26 26 25 26 26 25 24 23 23 22 21 20
13 13 13 12 12 12 13 14 15 15 16 17 18 18 18 19 20 21 23 24 25 25 26 25 25 24 23 20 17 15 14 12 10 10 10 8 6 5 7 6 3 4 7 8 7 6 8 13 15 15 15 17 20 22 25 23 21 26 29 27 27 28 28 28 27 28 28 28 29 29 29 28 28 28 27 27 27 27 26 26 26 26 24 22 21
15 15 15 13 13 14 15 15 16 16 17 17 17 17 18 20 21 22 23 24 24 25 26 25 25 24 22 21 19 17 16 14 12 11 10 8 7 6 6 5 3 4 6 6 8 8 8 12 15 15 16 18 22 24 24 22 23 27 31 29 28 29 30 30 29 29 29 29 29 30 30 30 29 29 29 29 29 27 27 28 28 28 26 24 23
17 17 16 15 14 15 15 16 17 17 17 17 17 18 19 21 22 23 24 24 24 25 25 25 25 25 23 21 20 18 16 15 14 13 11 10 10 9 9 6 3 4 6 5 7 8 10 14 15 14 16 20 23 24 25 25 24 28 33 28 24 27 31 31 31 31 30 29 30 31 31 31 31 31 32 31 30 28 28 29 30 28 26 25 25
18 17 16 15 15 16 16 16 17 17 17 17 18 19 20 22 23 23 24 23 23 24 24 24 24 25 24 23 21 19 17 15 14 13 12 11 11 11 11 9 5 6 8 6 7 7 9 16 17 16 18 22 25 25 28 29 25 30 33 26 23 27 30 31 33 33 32 30 30 31 31 32 32 33 33 32 30 30 30 30 30 28 26 25 25
18 17 17 16 16 17 17 17 17 17 17 17 18 19 21 23 23 23 23 22 22 23 23 23 24 24 24 23 21 19 17 15 13 13 12 12 12 12 12 11 7 7 7 7 8 8 10 16 18 19 22 25 26 28 30 28 27 32 32 26 26 28 29 32 35 34 32 31 31 31 31 32 33 34 33 32 32 32 31 29 29 28 26 25 24
18 18 18 17 17 18 18 18 18 17 17 17 18 20 21 23 22 23 22 22 22 22 22 22 22 22 23 22 20 17 16 14 13 13 12 12 12 12 12 11 8 7 6 6 7 9 13 17 18 20 24 25 26 29 30 27 30 35 31 28 28 27 30 35 36 33 31 32 32 31 31 32 33 33 33 33 33 33 31 29 27 27 27 25 23
19 20 19 19 18 18 19 19 18 17 17 18 19 20 21 22 22 22 22 21 21 21 21 21 21 21 21 20 17 15 14 14 13 13 13 12 11 10 10 9 8 7 6 7 7 8 13 16 17 20 24 25 25 26 27 26 29 34 31 29 28 28 33 36 34 32 31 31 31 31 31 32 33 34 35 35 34 32 30 28 26 26 26 25 23
20 20 20 20 20 19 19 19 19 18 18 18 18 19 21 22 21 21 20 20 20 20 20 21 20 20 19 17 15 14 13 13 13 13 12 12 11 10 9 7 6 6 6 7 7 8 13 16 18 20 22 25 25 23 24 24 27 30 30 29 29 31 33 32 31 32 31 31 31 31 31 32 33 35 36 35 33 31 29 28 26 25 25 25 24
20 20 21 20 20 20 19 19 19 18 18 18 18 19 20 21 20 19 19 19 20 20 20 20 19 17 16 16 15 14 12 12 12 12 12 12 10 9 9 8 6 6 6 7 8 12 15 16 17 20 21 23 24 22 24 25 26 27 28 29 30 31 29 28 29 31 31 31 31 31 32 33 34 35 34 33 32 31 30 29 28 27 26 27 26
20 21 21 20 20 19 19 19 19 18 18 18 18 19 20 21 20 20 19 18 19 18 17 17 17 15 14 14 14 14 13 12 11 11 11 11 10 9 9 9 8 7 7 8 9 13 16 16 17 19 21 22 22 22 25 26 26 27 28 30 30 29 28 28 30 31 31 32 32 32 33 34 34 34 34 33 32 32 31 31 31 30 29 29 29
20 21 21 21 20 19 20 20 19 18 18 17 18 20 21 21 21 20 18 18 18 16 15 15 15 15 14 13 13 14 13 12 12 12 12 11 11 11 10 9 9 9 8 9 10 12 16 18 18 19 20 21 22 23 25 26 27 27 29 30 30 28 28 30 32 33 32 32 33 34 34 34 35 35 35 34 34 34 34 33 33 32 31 30 30
21 20 20 20 20 19 20 20 20 19 18 17 18 20 21 20 20 19 18 17 16 15 14 13 13 13 12 12 12 12 12 11 12 12 12 12 12 12 11 10 10 11 10 9 10 12 15 18 19 19 21 21 22 24 24 24 25 27 28 29 29 30 31 32 32 32 32 33 34 34 34 34 35 35 35 35 35 35 35 35 35 34 32 30 29
22 21 20 20 20 20 20 20 20 19 18 18 19 20 20 18 17 17 16 15 14 13 13 13 12 11 11 11 11 11 10 10 11 12 13 13 13 12 12 11 11 12 12 11 11 12 14 16 19 20 20 20 22 24 24 24 25 25 26 27 29 32 33 32 32 33 32 33 33 33 33 35 35 35 35 35 35 35 35 35 35 33 32 29 28
22 21 21 20 20 20 20 21 20 20 19 18 19 19 18 17 16 16 15 14 13 13 12 12 11 10 10 10 10 10 10 11 11 12 13 14 13 12 13 13 12 13 13 12 12 12 13 16 18 19 19 20 21 22 23 26 27 26 24 25 28 30 31 31 32 32 31 32 32 32 33 34 35 35 34 34 34 34 34 33 31 31 29 28 25
22 22 21 21 21 21 21 21 21 20 19 18 18 18 18 17 16 15 13 12 12 11 11 10 10 9 9 9 9 10 10 11 11 11 13 14 14 13 14 14 14 14 14 13 13 13 14 16 18 19 20 20 21 22 23 25 27 27 26 27 29 30 30 31 32 32 32 32 32 32 33 34 34 33 33 32 31 30 30 29 29 28 26 25 24
22 22 22 22 21 21 21 21 21 20 19 19 18 17 17 16 14 13 13 11 11 10 10 9 9 8 8 9 9 10 11 11 12 12 13 14 13 13 14 15 15 14 14 14 14 14 14 16 17 18 20 20 20 22 24 24 23 24 26 30 32 32 32 32 33 34 34 32 31 32 33 32 32 31 31 30 28 27 27 27 27 26 24 22 21
22 22 22 22 22 21 21 21 21 21 20 19 18 17 16 14 13 12 11 10 10 9 9 8 7 7 8 9 10 10 11 12 13 14 15 16 15 14 15 16 15 14 14 14 14 15 15 16 17 18 20 20 21 23 25 25 24 24 26 29 31 32 34 34 32 32 33 33 32 32 32 32 32 31 30 29 26 25 26 26 25 23 21 19 20
22 22 22 22 22 22 22 22 22 21 20 19 18 17 16 14 13 11 11 10 9 9 8 7 6 6 6 8 10 10 10 12 13 14 15 17 17 16 15 16 15 14 14 14 14 15 15 16 17 19 19 20 23 25 25 25 26 27 29 30 30 31 33 35 33 31 30 32 34 32 32 32 33 32 29 27 26 26 26 25 23 21 21 22 24
21 22 23 23 23 23 22 23 23 22 21 19 16 15 15 14 12 11 11 10 9 8 7 6 5 4 5 6 8 9 9 11 14 15 16 17 17 16 15 15 14 13 13 13 14 15 16 16 17 19 19 20 23 24 24 25 26 27 29 31 31 31 30 30 31 30 30 33 36 36 33 31 31 32 30 28 27 27 25 24 24 25 27 28 28
22 23 24 24 24 24 23 23 23 22 21 19 16 14 14 13 12 11 11 11 10 8 6 5 4 3 3 4 6 8 9 12 15 16 17 17 17 16 15 15 14 14 13 13 13 14 15 16 17 19 19 20 23 23 24 26 27 26 28 30 31 31 29 26 26 29 31 35 37 36 34 30 29 30 31 29 28 27 26 27 29 30 31 30 29
23 24 25 26 25 25 24 23 23 23 22 20 17 15 14 13 12 11 11 11 10 8 6 5 4 2 3 3 5 7 9 12 15 16 17 18 18 17 16 15 15 15 14 14 14 14 14 15 17 18 19 20 22 24 25 27 27 27 27 28 30 30 29 27 27 30 34 37 35 33 32 30 29 30 31 30 29 28 29 30 30 32 32 31 30
23 25 26 26 26 25 25 24 23 23 22 20 18 16 15 14 12 11 11 10 10 8 7 6 4 2 2 3 4 6 9 12 15 16 17 18 19 19 18 17 17 16 16 16 16 16 16 15 15 18 20 20 20 24 27 27 27 28 27 27 30 31 30 30 31 34 37 36 34 31 30 31 31 31 31 30 29 29 30 30 31 32 33 31 28
24 25 27 27 26 26 25 24 24 23 22 21 19 17 16 14 13 12 11 9 9 9 8 7 4 2 2 3 4 5 9 12 15 16 16 18 20 20 20 20 19 19 18 18 18 18 19 18 17 19 22 22 22 26 29 26 25 27 28 28 30 31 31 31 31 33 33 31 31 30 27 30 33 32 32 32 31 30 30 30 31 32 32 29 25
25 26 26 27 27 26 26 25 24 23 22 21 19 18 16 15 13 12 10 9 9 9 9 9 5 1 1 3 4 6 8 11 13 14 15 17 19 20 21 21 21 21 21 20 20 19 20 20 20 21 24 26 26 29 31 28 25 27 27 26 27 28 29 29 28 28 27 27 30 29 26 30 32 32 33 34 32 31 30 29 30 29 27 26 26
25 25 26 27 27 27 26 25 24 23 22 21 19 17 16 15 14 12 10 10 9 9 10 10 6 2 1 2 3 5 8 10 11 12 14 15 17 18 19 22 22 21 20 21 20 18 19 19 19 21 23 25 28 31 32 31 29 29 25 22 24 27 28 28 27 28 27 26 28 31 29 30 31 30 33 34 33 32 31 28 27 27 26 28 28
25 25 26 27 27 27 26 25 25 24 22 21 19 17 16 15 14 13 12 11 10 10 10 10 7 3 2 1 2 4 6 8 9 11 13 14 15 15 17 20 20 19 21 24 23 20 19 18 19 20 22 24 28 31 32 33 34 31 24 22 26 29 28 25 24 28 29 25 28 34 31 28 29 30 32 34 33 30 28 27 27 28 28 29 27
26 26 26 27 27 26 26 25 25 24 23 21 19 18 16 16 15 14 13 12 11 11 10 10 7 4 3 1 1 3 5 7 8 9 11 13 13 14 15 17 16 16 20 26 26 25 24 22 22 23 24 26 29 32 33 35 36 32 25 21 25 28 27 24 24 28 27 22 29 39 32 26 29 30 31 34 31 26 24 26 28 29 28 26 24
26 27 27 27 27 26 25 25 24 23 22 21 20 18 16 16 16 15 14 12 12 12 11 10 8 6 4 2 1 2 4 6 6 7 9 11 11 12 14 14 13 15 20 24 25 25 25 25 25 26 27 29 31 33 34 36 36 34 28 23 22 25 27 27 28 27 20 19 32 41 33 27 28 29 30 28 22 21 26 29 30 30 27 23 22
Wind_Direction
72 66 50 48 60 60 71 88 90 87 82 78 81 75 71 75 81 87 86 84 81 76 72 63 52 47 46 36 24 22 24 33 45 55 60 68 67 57 44 40 34 37 46 46 39 32 28 22 20 22 25 22 13 7 0 349 340 336 333 327 320 317 318 318 314 307 294 284 279 275 276 281 281 277 274 279 275 259 255 259 261 259 256 254 254
71 77 57 55 72 81 97 93 82 82 74 68 75 72 70 73 76 78 78 78 78 78 73 66 55 44 42 38 38 46 56 69 78 81 82 88 84 74 66 60 54 51 55 63 65 62 56 47 42 38 41 40 30 26 28 21 12 2 355 352 345 330 324 323 320 318 316 301 282 273 275 280 279 275 273 276 278 267 255 254 259 261 257 254 252
92 100 82 80 103 108 96 80 73 78 80 79 79 75 68 64 63 64 65 69 72 74 72 66 57 50 50 54 63 71 77 83 87 91 91 93 93 85 75 64 64 68 68 76 84 85 74 60 56 52 54 52 41 34 34 26 19 12 6 12 16 6 348 337 332 328 324 314 294 280 275 277 277 274 273 276 277 274 261 251 252 258 258 254 252
130 111 98 97 112 112 94 85 84 85 79 72 70 66 61 55 54 53 54 61 64 64 63 63 64 65 68 74 80 85 87 89 91 93 93 92 93 90 82 72 70 75 76 77 79 78 72 62 57 60 66 63 50 37 29 21 18 15 11 15 24 24 13 1 356 350 339 326 310 292 280 276 277 275 270 270 274 275 269 254 247 251 255 254 251
147 117 103 102 110 115 110 103 96 88 76 65 59 58 65 65 61 57 54 57 59 59 60 63 68 75 82 86 90 92 92 92 91 91 91 90 88 86 83 79 75 73 72 73 72 69 66 63 58 57 59 59 53 44 37 30 26 25 18 12 16 28 24 13 7 4 357 346 334 315 295 281 274 272 267 264 269 272 271 262 248 246 250 253 252
146 123 107 105 111 117 118 113 99 84 70 56 46 52 62 62 59 54 44 46 51 53 61 69 78 86 90 93 95 95 93 91 89 86 85 84 84 82 78 77 76 72 65 62 64 63 60 58 55 52 50 50 51 49 46 40 34 30 27 18 6 16 24 16 8 5 2 355 348 340 327 306 283 271 265 262 264 266 269 267 254 247 246 248 251
140 127 112 112 122 127 121 110 93 70 49 40 34 38 40 36 41 41 31 34 42 49 67 81 91 97 97 96 95 92 90 87 85 83 81 80 78 77 74 73 71 70 64 54 52 52 50 49 46 43 41 41 43 42 43 38 26 18 23 22 10 3 16 15 8 3 2 357 347 342 338 329 309 281 265 261 261 261 264 268 263 254 249 247 249
135 122 111 121 136 138 120 100 84 56 28 28 24 22 24 19 19 23 26 32 42 59 82 95 101 103 99 96 92 89 85 83 81 80 78 77 76 74 72 70 66 64 62 52 45 42 40 38 34 31 28 27 29 29 32 31 23 16 16 19 11 359 4 11 7 358 356 360 350 339 335 332 326 304 274 261 259 261 263 265 265 259 255 251 248
126 120 118 129 137 134 120 104 87 44 13 9 9 12 14 10 9 10 17 26 45 82 100 105 106 103 98 93 88 84 81 79 79 79 77 77 76 74 70 68 63 58 55 49 42 38 36 33 29 25 22 20 19 17 20 24 23 20 16 17 11 360 358 4 4 357 350 0 357 342 337 341 340 328 294 267 260 261 262 263 264 263 258 254 250
116 129 129 128 124 122 116 99 65 20 3 0 0 5 5 4 8 10 15 25 51 105 116 113 109 103 95 90 85 81 78 77 77 77 76 76 74 72 68 63 60 54 50 46 41 39 37 34 30 27 24 19 16 12 12 15 18 19 16 16 14 6 0 359 1 358 350 353 359 346 340 352 352 345 332 302 279 273 269 264 262 262 258 254 253
137 143 131 122 115 104 84 40 16 1 354 355 355 358 2 8 22 28 31 34 61 120 127 119 112 104 95 89 82 78 75 74 75 74 74 75 72 69 65 60 57 53 49 47 43 41 39 38 34 31 28 23 18 14 9 10 12 16 14 12 13 10 5 2 0 360 354 349 354 349 342 353 356 348 344 341 328 312 298 277 263 257 256 255 254
148 138 123 126 110 57 353 333 330 331 335 343 349 354 7 26 45 56 59 56 80 125 133 123 113 104 96 90 83 76 73 71 71 71 70 71 69 66 63 59 55 51 49 48 46 42 39 39 37 34 32 27 23 18 13 11 11 14 13 9 9 8 6 5 1 1 359 352 351 350 344 349 353 347 340 333 330 331 323 302 274 258 254 253 250
153 150 191 220 291 304 298 304 307 315 333 350 356 359 29 57 71 80 84 75 80 123 141 132 123 115 105 98 90 78 71 67 65 66 66 65 66 65 63 60 56 49 47 47 45 42 40 39 38 37 34 31 27 23 19 15 11 14 13 8 7 6 4 3 2 1 359 354 353 351 344 344 345 344 344 335 328 330 328 318 298 270 255 250 245
166 178 200 235 266 279 282 295 308 334 359 7 17 34 67 78 88 87 85 78 70 105 150 155 153 147 141 132 119 96 76 67 61 60 62 62 64 64 63 61 57 52 48 47 45 43 42 40 39 38 36 33 29 25 23 18 14 16 14 9 8 6 3 2 1 360 358 355 355 352 346 346 343 334 337 340 333 331 333 329 317 290 262 250 242
174 191 206 228 246 266 281 316 345 11 20 32 57 79 98 104 108 94 85 79 67 73 132 172 182 157 163 162 152 147 107 76 63 58 58 59 60 61 62 59 56 52 49 47 44 42 40 39 39 37 36 34 30 26 23 19 18 19 13 8 8 6 3 1 359 358 357 355 354 351 349 350 348 338 334 340 338 333 335 334 326 312 282 258 244
181 193 204 209 214 241 292 21 24 43 62 86 95 101 117 125 124 106 94 87 74 67 77 107 138 158 181 164 156 168 122 92 78 62 53 55 55 55 57 56 53 51 48 44 42 40 36 35 35 33 32 29 26 23 20 15 15 16 10 6 7 5 2 1 358 356 354 353 352 350 349 347 347 346 343 341 339 336 335 334 328 323 312 282 253
174 177 174 171 159 127 93 80 82 92 97 102 105 107 117 126 120 111 105 100 93 79 73 77 89 99 95 93 138 112 77 108 110 80 57 54 53 53 53 51 51 50 48 45 42 40 36 34 32 32 30 27 23 20 17 14 11 10 4 1 3 2 0 359 356 355 352 351 349 348 347 345 343 344 345 342 339 337 335 333 329 326 324 311 276
152 152 147 140 129 113 104 111 110 105 103 100 104 110 113 116 112 109 110 108 105 94 81 78 79 81 82 81 83 85 85 161 148 111 88 67 54 52 52 51 52 52 49 46 43 41 37 33 29 29 28 24 21 16 13 10 9 8 360 357 359 359 358 355 352 352 352 349 347 345 345 344 342 340 340 340 338 337 336 333 329 326 325 319 302
140 136 132 125 116 115 114 117 112 104 102 101 103 109 109 109 110 111 113 112 109 102 91 84 79 78 80 83 84 86 87 82 76 109 141 102 57 51 52 51 51 51 49 45 40 37 33 29 23 22 20 17 15 11 8 3 3 4 355 353 355 355 355 353 350 350 351 348 345 343 342 341 340 339 337 337 337 337 337 334 328 325 323 319 312
134 130 125 119 115 118 118 117 113 106 104 104 105 107 107 107 107 107 106 104 103 101 95 89 87 84 82 82 80 80 79 76 71 55 82 118 66 50 47 53 54 46 43 40 36 32 28 24 20 17 13 12 11 8 5 359 358 356 349 352 353 350 351 350 347 348 348 346 342 339 339 338 337 336 335 335 336 335 335 335 330 326 322 317 313
130 126 121 119 119 120 120 117 113 109 107 107 108 108 108 108 105 102 99 97 96 96 93 89 90 91 86 82 79 77 75 70 66 59 53 56 59 34 20 38 60 45 35 28 27 27 23 19 16 13 10 7 5 4 1 357 355 351 347 352 351 345 346 346 345 344 343 342 339 336 335 335 334 333 332 333 333 332 333 333 330 328 324 315 309
129 126 124 124 124 122 121 118 113 112 112 112 112 110 107 104 101 99 97 95 93 91 90 87 85 83 80 77 74 73 72 63 54 52 51 47 48 32 14 11 24 31 24 15 9 9 14 14 10 8 6 3 360 357 355 353 350 348 348 351 348 341 342 343 342 341 339 338 336 333 331 330 329 329 329 330 330 329 329 330 328 326 324 317 308
132 131 130 129 130 127 123 119 116 116 117 116 114 109 106 102 99 98 95 93 91 88 86 84 81 78 76 73 70 68 67 61 49 44 46 42 35 28 15 5 358 7 6 6 6 355 1 8 7 4 1 359 357 353 352 351 346 347 348 348 346 342 341 341 339 338 336 335 335 331 327 325 325 325 325 326 327 326 325 326 325 322 321 318 309
136 136 136 136 134 129 124 122 120 120 119 116 114 110 107 104 101 99 96 92 90 86 84 82 79 77 74 73 72 69 66 63 56 50 49 43 31 21 8 356 347 355 354 357 2 356 356 3 2 360 357 355 353 350 351 348 342 346 348 346 345 344 342 340 337 335 334 333 332 329 325 323 322 321 322 322 323 323 322 322 322 320 318 316 310
143 141 140 141 137 131 129 126 123 122 120 116 113 111 109 106 104 101 96 92 88 85 83 81 79 78 76 74 72 69 66 63 59 54 49 43 32 18 2 354 345 355 359 359 1 0 0 359 354 352 352 349 347 346 346 342 338 344 347 343 341 340 339 338 336 333 333 331 329 327 325 323 321 319 318 319 319 319 319 319 319 319 316 313 309
148 145 144 145 139 134 132 128 126 124 120 117 113 112 111 108 106 102 96 92 88 85 83 81 79 78 77 75 73 71 67 63 60 55 49 44 34 18 3 358 346 357 5 3 4 8 1 354 350 350 348 345 344 342 342 341 335 340 344 337 329 330 331 333 333 332 330 327 326 325 325 324 321 320 319 318 317 316 317 316 315 315 312 310 310
150 148 148 147 140 136 134 131 129 127 121 117 115 114 113 110 106 102 97 93 89 86 83 81 79 77 76 76 73 71 67 63 61 58 53 49 42 29 18 13 2 357 1 359 5 11 355 348 349 351 348 344 343 341 343 343 337 339 342 332 320 323 325 325 327 328 327 324 324 324 324 323 321 321 320 318 316 313 313 313 311 311 309 308 309
151 150 151 150 143 139 137 135 132 129 123 118 116 117 114 110 107 102 98 93 89 86 83 81 78 76 75 75 72 71 68 65 63 60 56 52 46 40 34 28 13 354 351 353 0 3 353 348 346 346 347 344 342 343 344 341 339 342 340 329 321 320 321 322 323 323 322 320 322 322 321 321 320 320 317 314 313 312 311 310 309 307 307 306 305
153 154 154 151 146 142 140 139 136 131 125 120 118 118 115 111 109 104 99 95 90 87 84 81 79 77 75 75 73 72 69 67 64 60 56 52 47 43 39 32 21 2 346 340 345 343 343 346 344 339 341 342 340 343 344 337 339 344 336 324 320 316 318 323 322 320 320 317 319 320 320 320 318 316 313 311 311 311 309 308 308 305 304 305 303
156 157 156 153 148 145 143 141 139 134 127 122 120 119 117 113 110 105 101 97 92 88 85 82 80 78 78 77 76 75 71 67 63 58 53 48 44 40 35 30 22 11 349 330 328 331 333 337 339 336 336 338 337 338 337 331 334 338 330 321 318 314 317 321 320 319 318 317 318 318 318 318 316 313 312 312 311 310 309 308 307 305 303 302 302
159 158 159 156 151 148 145 144 142 137 129 124 122 121 119 116 112 108 103 98 94 89 86 84 83 82 82 81 78 75 71 65 59 54 48 44 40 35 28 23 15 6 345 324 315 323 329 327 329 331 333 334 334 332 329 325 326 329 325 318 316 314 315 316 317 318 318 319 318 316 315 314 314 314 313 312 310 308 308 307 306 305 303 302 302
161 161 162 159 154 150 148 147 145 139 133 127 125 124 122 119 115 111 105 99 95 91 88 87 88 88 86 83 78 72 67 61 54 49 43 37 34 30 22 14 8 356 339 326 308 311 322 325 324 328 332 333 332 331 328 324 324 326 322 317 316 316 315 315 318 321 321 320 317 315 313 312 313 315 314 311 309 308 307 306 306 305 304 303 302
163 164 164 161 157 153 150 149 148 143 137 131 128 128 125 122 118 111 106 101 96 94 93 91 92 92 88 82 75 68 63 58 51 45 37 31 26 23 16 7 2 357 340 330 317 312 321 329 327 328 333 333 332 333 331 326 325 326 323 319 318 317 319 322 324 324 323 319 317 316 315 314 314 314 313 310 308 307 305 305 306 304 303 302 300
165 166 166 164 160 157 154 153 151 146 140 135 133 132 128 123 118 112 108 104 100 98 97 95 94 92 87 80 71 65 60 54 48 41 32 27 22 16 11 4 359 358 349 337 328 322 323 329 332 332 336 336 332 333 332 327 325 325 323 321 321 322 326 329 327 324 321 319 319 318 316 315 314 313 312 309 306 306 305 304 304 303 301 300 298
168 168 168 166 163 161 158 156 154 150 144 140 138 135 130 124 119 115 111 107 104 102 99 99 97 91 85 77 67 59 54 48 42 36 28 22 17 11 5 1 356 354 352 345 336 330 325 327 333 336 338 336 332 331 331 327 325 325 323 323 326 330 331 330 327 323 321 321 320 319 318 317 315 314 312 309 307 306 305 304 303 302 301 299 297
170 170 170 169 167 165 163 161 157 154 149 144 142 138 132 128 124 120 116 112 108 103 99 99 97 91 82 73 61 52 47 41 36 30 24 18 13 7 2 359 356 352 351 350 344 336 327 327 332 335 336 334 330 330 331 329 327 327 326 326 330 334 334 331 329 325 322 322 322 321 320 319 317 316 313 311 309 306 304 304 303 302 302 299 296
172 172 172 171 171 171 168 165 162 158 153 148 145 142 136 132 129 126 123 119 112 105 101 98 96 90 78 67 56 46 40 36 32 24 19 15 10 6 3 1 358 353 352 351 346 339 332 329 330 332 335 334 331 331 334 333 331 330 331 330 330 332 333 333 332 327 325 326 326 324 323 321 319 318 316 314 311 309 307 306 305 304 303 302 298
174 175 175 175 176 175 173 170 166 162 158 153 150 148 143 137 134 132 129 125 119 110 104 100 96 88 74 61 51 44 38 33 28 20 13 9 6 5 3 1 358 355 352 349 345 341 336 332 330 333 337 338 335 335 338 337 333 332 334 334 332 332 333 334 333 330 329 328 327 327 326 323 321 320 319 318 315 314 312 310 309 308 307 305 302
177 177 178 179 179 178 176 174 171 167 162 159 157 155 150 145 142 140 137 133 127 119 110 105 98 86 71 59 49 43 39 32 25 17 11 6 4 4 3 0 358 354 351 347 345 343 338 335 336 338 339 340 339 337 337 337 335 334 336 337 335 335 335 334 332 330 330 329 329 330 329 326 323 322 321 320 319 317 315 314 311 310 308 306 303
180 180 181 182 181 180 178 176 174 172 167 163 162 160 157 155 152 150 147 144 139 129 118 111 102 87 70 58 51 46 40 31 22 16 11 7 5 5 3 1 358 353 350 347 345 344 342 340 342 342 341 342 344 341 339 342 342 338 339 338 334 332 334 333 331 330 330 330 331 331 331 329 325 323 322 321 321 319 317 315 313 311 308 304 303
183 183 184 185 183 181 180 179 178 176 172 169 168 166 165 164 162 161 160 156 150 140 129 119 107 90 72 58 49 44 36 26 19 15 12 10 10 8 6 5 1 354 349 347 347 345 343 343 345 345 343 344 347 344 343 346 342 336 336 337 333 331 332 330 330 332 334 332 332 331 333 331 325 322 322 321 321 321 318 315 314 311 305 301 301
186 186 187 187 186 184 182 181 181 179 178 176 173 172 171 170 170 171 171 168 161 152 142 133 119 96 74 57 43 35 27 19 16 15 13 13 15 15 12 12 10 1 352 347 347 345 344 344 346 346 345 345 346 345 343 342 338 334 336 337 335 333 333 331 328 333 337 336 333 329 330 331 326 320 320 319 319 319 317 314 310 306 303 302 303
189 190 189 188 188 187 185 184 184 183 183 180 176 175 176 174 175 176 177 177 171 163 155 148 135 104 73 54 35 24 19 15 12 13 15 18 21 21 18 18 18 14 4 352 345 343 342 342 343 345 346 344 342 343 343 340 337 335 335 336 337 335 335 333 328 329 333 335 332 327 327 330 328 321 318 318 318 316 314 312 309 306 305 305 305
191 192 191 190 189 189 188 187 186 185 186 183 179 178 178 178 179 177 177 178 176 174 171 165 155 114 68 47 31 19 12 10 10 12 16 21 24 23 21 22 22 19 15 7 357 348 341 338 339 344 346 342 339 342 344 340 335 332 331 335 339 337 333 333 329 325 329 332 333 329 327 330 330 323 318 317 317 315 312 310 310 308 307 306 307
193 192 191 190 190 190 189 188 187 186 186 185 183 182 182 184 184 181 178 176 179 183 181 179 174 134 63 42 34 18 6 7 10 13 17 21 23 25 27 27 23 20 18 16 10 1 352 342 334 337 342 340 335 338 341 337 333 333 332 334 339 338 335 334 330 325 328 334 336 332 327 329 331 325 320 319 318 315 311 309 309 310 309 308 310
191 190 190 190 190 189 189 188 187 186 186 186 186 186 187 189 189 186 182 178 182 189 190 189 184 151 51 38 40 18 6 6 8 13 18 20 22 25 28 29 26 22 19 15 12 8 3 355 342 337 343 343 337 339 342 340 335 333 331 331 337 338 335 332 328 326 329 335 339 336 328 328 331 326 320 321 320 315 312 309 309 310 310 310 312
189 188 188 189 189 188 188 188 186 185 186 186 187 189 190 193 193 191 190 189 190 193 195 196 192 173 34 37 31 11 6 7 8 13 18 20 21 22 23 25 25 24 20 14 10 6 4 1 354 348 351 353 351 351 352 348 342 337 330 327 334 337 333 330 327 326 330 335 341 343 331 325 330 327 321 322 322 317 314 312 311 311 311 310 309
188 187 187 188 189 188 188 188 187 186 186 187 188 190 193 196 194 193 193 192 192 196 199 201 199 190 85 55 28 6 4 5 7 14 18 19 20 18 17 19 19 19 16 14 15 11 5 3 359 356 357 360 1 3 2 359 353 346 335 331 339 341 336 334 331 330 332 335 344 348 334 325 329 327 322 325 325 320 318 317 316 315 313 311 309
187 187 187 188 189 188 187 188 188 187 186 187 188 190 194 197 196 194 192 188 189 195 199 199 196 187 158 94 27 5 4 3 5 14 19 20 19 13 11 13 12 8 7 10 13 13 9 6 2 0 1 3 6 9 9 7 3 357 345 340 348 347 341 338 336 334 334 335 346 349 338 326 329 328 325 328 328 322 321 322 322 320 317 316 312
189 188 188 188 189 189 188 189 189 188 186 186 187 190 196 202 202 197 191 185 186 189 192 193 190 183 176 156 20 359 359 1 1 9 17 20 17 10 6 6 4 1 2 5 7 7 8 8 5 5 6 7 8 10 10 10 9 4 354 344 347 349 345 341 338 337 335 336 347 350 341 329 332 333 331 331 330 327 327 327 326 325 323 320 317
191 189 188 188 188 188 189 190 191 191 188 188 191 195 201 205 202 194 187 184 184 184 184 187 187 183 184 196 298 333 355 0 356 359 10 16 14 8 3 359 355 353 356 -0 0 359 1 4 5 6 7 8 8 8 7 8 8 6 360 349 345 349 350 347 343 341 337 337 346 350 345 335 336 339 338 336 330 328 332 331 329 328 326 325 322